www.pogodaiklimat.ru

Погода и климат >> Архив погоды >> Австралия >> Западная Австралия >> Гингин


ПОГОДА в Гингине

  • Прогноз погоды в Гингине
  • Монитор погоды в Гингине

АРХИВ ПОГОДЫ в Гингине

Время (UTC), дата Ветер
(напр.,м/с)
 
Видим.   Явления Облачность Т
(С)
Тd
(С)
f
(%)
Тe
(С)
Тes
(С)
Комфортность P
(гПа)
Po
(гПа)
Тmin
(С)
Tmax
(С)
R
(мм)
R24
(мм)
S
(см)
19 9.01 С 2 н/о н/о +13.6 +12.2 91 +13 +13 1010.7 1002.2
21 9.01 С 1 н/о н/о +12.2 +11.1 93 +13 +13 1011.3 1002.8
22 9.01 С 2 н/о н/о +12.6 +11.7 94 +12 +12 1011.9 1003.3
00 10.01 З 4 н/о н/о +22.0 +16.9 73 +26 +26 душно 1012.2 1003.6
01 10.01 ЮЗ 4 н/о н/о +23.7 +16.2 63 +27 +27 жарко 1012.1 1003.5 +12.1
03 10.01 З 7 н/о н/о +26.8 +13.9 45 +29 +29 жарко 1012.2 1003.6
04 10.01 З 8 н/о н/о +26.2 +14.0 47 +28 +28 жарко 1012.6 1004.0
06 10.01 ЮЗ 7 н/о н/о +26.4 +13.5 45 +28 +28 жарко 1012.4 1003.8
07 10.01 ЮЗ 9 н/о н/о +24.4 +12.7 48 +26 +26 жарко 1012.6 1004.0
09 10.01 ЮЗ 8 н/о н/о +22.0 +12.8 56 +25 +25 комфорт 1013.0 1004.4
10 10.01 ЮЗ 8 н/о н/о +21.0 +12.4 58 +23 +23 комфорт 1013.4 1004.8
12 10.01 ЮЗ 7 н/о н/о +19.0 +12.3 65 +19 +19 1014.8 1006.2
13 10.01 Ю 6 н/о н/о +18.6 +12.4 67 +19 +19 1015.5 1006.9 +27.5
15 10.01 Ю 6 н/о н/о +19.1 +13.3 69 +20 +20 1015.6 1007.0
16 10.01 Ю 5 н/о н/о +19.1 +13.5 70 +20 +20 1015.7 1007.1
18 10.01 Ю 5 н/о н/о +19.0 +13.6 71 +20 +20 1015.4 1006.8
19 10.01 Ю 3 н/о н/о +17.3 +13.0 76 +17 +17 1015.2 1006.6
21 10.01 В 3 н/о н/о +13.9 +11.8 87 +13 +13 1016.0 1007.4
22 10.01 штиль 0 н/о н/о +13.0 +11.1 88 +12 +12 1016.8 1008.2
00 11.01 ЮВ 5 н/о н/о +20.4 +12.9 62 +23 +23 комфорт 1017.3 1008.7
01 11.01 Ю 4 н/о н/о +22.5 +10.6 47 +24 +24 комфорт 1017.2 1008.6 +11.7
03 11.01 ЮВ 5 н/о н/о +25.9 +7.5 31 +26 +26 жарко 1016.6 1008.0
04 11.01 З 2 н/о н/о +27.4 +7.3 28 +27 +27 жарко 1016.0 1007.4
06 11.01 Ю 6 н/о н/о +28.2 +12.9 39 +30 +30 жарко 1014.6 1006.0
07 11.01 ЮЗ 8 н/о н/о +27.3 +13.3 42 +29 +29 жарко 1014.4 1005.8
09 11.01 ЮЗ 7 н/о н/о +24.9 +12.5 46 +27 +27 жарко 1014.0 1005.4
10 11.01 Ю 7 н/о н/о +23.4 +11.8 48 +26 +26 жарко 1014.0 1005.4
12 11.01 ЮЗ 4 н/о н/о +19.7 +10.9 57 +21 +21 комфорт 1015.0 1006.4
13 11.01 ЮЗ 4 н/о н/о +18.7 +13.1 70 +19 +19 1015.4 1006.8 +30.2
15 11.01 ЮЗ 3 н/о н/о +17.3 +14.2 82 +17 +17 1015.4 1006.8
16 11.01 Ю 3 н/о н/о +16.0 +13.7 86 +16 +16 1014.8 1006.2
18 11.01 ЮВ 2 н/о н/о +12.6 +10.7 88 +12 +12 1013.6 1005.0
19 11.01 ЮВ 2 н/о н/о +12.5 +10.9 90 +12 +12 1013.6 1005.0
21 11.01 ЮВ 2 н/о н/о +9.7 +8.0 89 +8 +8 1013.9 1005.3
22 11.01 ЮВ 1 н/о н/о +11.1 +9.7 91 +11 +11 1014.5 1005.9
00 12.01 В 4 н/о н/о +24.4 +10.3 41 +25 +25 комфорт 1014.2 1005.6
01 12.01 В 3 н/о н/о +28.9 +9.6 30 +29 +29 жарко 1013.9 1005.3 +9.7
03 12.01 Ю 4 н/о н/о +33.3 +9.4 23 +32 +32 жарко 1013.0 1004.4
04 12.01 ЮЗ 7 н/о н/о +33.7 +12.1 27 +34 +34 очень
жарко
1012.3 1003.7
06 12.01 ЮЗ 8 н/о н/о +33.8 +11.0 25 +33 +33 жарко 1010.9 1002.4
07 12.01 ЮЗ 8 н/о н/о +33.5 +9.5 23 +33 +33 жарко 1010.6 1002.1
09 12.01 ЮЗ 9 н/о н/о +29.1 +11.6 34 +30 +30 жарко 1010.0 1001.5
10 12.01 ЮЗ 9 н/о н/о +26.2 +12.6 43 +28 +28 жарко 1010.4 1001.9
12 12.01 ЮЗ 6 н/о н/о +22.0 +15.1 65 +26 +26 душно 1011.3 1002.8
13 12.01 Ю 5 н/о н/о +21.2 +14.1 64 +24 +24 комфорт 1012.1 1003.5 +35.3
15 12.01 ЮЗ 4 н/о н/о +20.1 +15.7 76 +23 +23 комфорт 1011.5 1003.0
16 12.01 ЮЗ 3 н/о н/о +19.7 +16.3 81 +22 +22 комфорт 1011.1 1002.6
18 12.01 ЮЗ 4 н/о н/о +19.4 +16.6 84 +21 +21 комфорт 1009.8 1001.3
19 12.01 ЮЗ 4 н/о н/о +19.2 +16.6 85 +21 +21 комфорт 1009.5 1001.0
21 12.01 ЮЗ 4 н/о н/о +19.1 +17.1 88 +21 +21 комфорт 1010.6 1002.1
22 12.01 ЮЗ 8 н/о н/о +19.6 +16.4 82 +21 +21 комфорт 1011.7 1003.1
00 13.01 Ю 8 н/о н/о +22.3 +14.4 61 +26 +26 жарко 1013.6 1005.0
01 13.01 Ю 7 н/о н/о +24.3 +11.9 46 +26 +26 жарко 1013.8 1005.2 +19.0
03 13.01 ЮЗ 10 н/о н/о +26.0 +13.5 46 +28 +28 жарко 1013.7 1005.1
04 13.01 ЮЗ 10 н/о н/о +26.4 +14.2 47 +29 +29 жарко 1013.6 1005.0
06 13.01 ЮЗ 9 н/о н/о +27.2 +15.2 48 +30 +30 душно 1012.9 1004.3
07 13.01 ЮЗ 9 н/о н/о +26.2 +15.9 53 +29 +29 жарко 1012.7 1004.1
09 13.01 ЮЗ 8 н/о н/о +25.3 +17.0 60 +29 +29 душно 1012.7 1004.1
10 13.01 ЮЗ 8 н/о н/о +23.9 +16.7 64 +27 +27 жарко 1013.2 1004.6
12 13.01 ЮЗ 7 н/о н/о +20.5 +17.1 81 +23 +23 комфорт 1014.3 1005.7
13 13.01 ЮЗ 5 н/о н/о +20.1 +17.1 83 +23 +23 комфорт 1014.4 1005.8 +28.7
15 13.01 ЮЗ 4 н/о н/о +20.0 +16.8 82 +23 +23 комфорт 1014.4 1005.8
16 13.01 Ю 4 н/о н/о +19.6 +17.0 85 +22 +22 комфорт 1013.9 1005.3
18 13.01 ЮВ 2 н/о н/о +17.9 +16.1 89 +19 +19 1013.1 1004.5
19 13.01 Ю 3 н/о н/о +17.1 +15.3 89 +17 +17 1012.9 1004.3
21 13.01 ЮВ 3 н/о н/о +16.8 +13.9 83 +17 +17 1013.5 1004.9
22 13.01 ЮВ 4 н/о н/о +17.8 +13.5 76 +18 +18 1013.9 1005.3
00 14.01 ЮВ 5 н/о н/о +22.0 +13.6 59 +25 +25 комфорт 1014.0 1005.4
01 14.01 ЮВ 4 н/о н/о +24.2 +13.4 51 +26 +26 жарко 1013.8 1005.2 +16.8
03 14.01 Ю 3 н/о н/о +28.5 +12.8 38 +30 +30 жарко 1012.5 1003.9
04 14.01 Ю 4 н/о н/о +30.0 +12.9 35 +31 +31 жарко 1011.9 1003.3
06 14.01 ЮЗ 8 н/о н/о +28.7 +14.9 43 +31 +31 жарко 1010.8 1002.3
07 14.01 Ю 8 н/о н/о +28.7 +14.9 43 +31 +31 жарко 1010.7 1002.2
09 14.01 ЮЗ 8 н/о н/о +25.3 +13.5 48 +27 +27 жарко 1010.6 1002.1
10 14.01 ЮЗ 8 н/о н/о +23.8 +13.6 53 +26 +26 жарко 1010.8 1002.3
12 14.01 ЮЗ 5 н/о н/о +19.8 +14.2 70 +22 +22 комфорт 1012.0 1003.4
13 14.01 ЮЗ 6 н/о н/о +19.1 +15.0 77 +20 +20 1012.6 1004.0 +31.1
15 14.01 ЮЗ 3 н/о н/о +18.4 +15.3 82 +19 +19 1012.3 1003.7
16 14.01 Ю 3 н/о н/о +18.0 +14.9 82 +18 +18 1011.7 1003.1
18 14.01 штиль 0 н/о н/о +14.6 +12.1 85 +14 +14 1010.9 1002.4
19 14.01 Ю 2 н/о н/о +13.1 +10.8 86 +13 +13 1010.6 1002.1
21 14.01 ЮВ 2 н/о н/о +13.0 +11.4 90 +12 +12 1011.0 1002.5
22 14.01 ЮВ 2 н/о н/о +13.6 +11.7 88 +13 +13 1011.9 1003.3
00 15.01 В 6 н/о н/о +20.3 +11.0 55 +22 +22 комфорт 1012.7 1004.1
01 15.01 ЮВ 5 н/о н/о +22.5 +11.6 50 +25 +25 комфорт 1012.4 1003.8 +12.5
03 15.01 ЮВ 4 н/о н/о +27.2 +11.7 38 +28 +28 жарко 1011.2 1002.7
04 15.01 ЮВ 3 н/о н/о +29.5 +11.5 33 +30 +30 жарко 1010.4 1001.9
06 15.01 ЮЗ 9 н/о н/о +27.8 +13.0 40 +29 +29 жарко 1009.6 1001.1
07 15.01 ЮЗ 9 н/о н/о +27.0 +13.7 44 +29 +29 жарко 1009.6 1001.1
09 15.01 ЮЗ 9 н/о н/о +24.2 +13.4 51 +26 +26 жарко 1009.9 1001.4
10 15.01 ЮЗ 8 н/о н/о +22.4 +14.0 59 +26 +26 жарко 1010.0 1001.5
12 15.01 ЮЗ 6 н/о н/о +19.3 +14.3 73 +20 +20 1010.5 1002.0
13 15.01 ЮЗ 5 н/о н/о +18.8 +14.7 77 +20 +20 1011.0 1002.5 +30.4
15 15.01 ЮЗ 4 н/о н/о +18.3 +14.6 79 +19 +19 1010.8 1002.3
16 15.01 ЮЗ 5 н/о н/о +18.5 +14.6 78 +19 +19 1010.6 1002.1
18 15.01 Ю 2 н/о н/о +17.0 +14.5 85 +17 +17 1010.0 1001.5
19 15.01 ЮВ 2 н/о н/о +15.5 +13.3 87 +16 +16 1009.9 1001.4
21 15.01 Ю 4 н/о н/о +13.8 +11.5 86 +12 +12 1010.4 1001.9
22 15.01 Ю 4 н/о н/о +13.9 +11.4 85 +13 +13 1011.0 1002.5
00 16.01 ЮВ 5 н/о н/о +19.8 +11.3 58 +21 +21 комфорт 1012.0 1003.4
01 16.01 ЮВ 4 н/о н/о +21.9 +11.3 51 +24 +24 комфорт 1011.8 1003.2 +13.5
03 16.01 Ю 6 н/о н/о +27.0 +11.5 38 +28 +28 жарко 1010.9 1002.4
04 16.01 Ю 6 н/о н/о +28.7 +10.8 33 +29 +29 жарко 1010.5 1002.0
06 16.01 ЮЗ 9 н/о н/о +26.6 +12.6 42 +28 +28 жарко 1010.1 1001.6
07 16.01 ЮЗ 9 н/о н/о +25.1 +12.3 45 +27 +27 жарко 1010.2 1001.7
09 16.01 ЮЗ 9 н/о н/о +23.0 +11.4 48 +25 +25 комфорт 1010.6 1002.1
10 16.01 Ю 9 н/о н/о +21.8 +12.4 55 +24 +24 комфорт 1011.0 1002.5
12 16.01 ЮЗ 6 н/о н/о +18.7 +12.9 69 +19 +19 1012.2 1003.6
13 16.01 ЮЗ 5 н/о н/о +18.1 +13.4 74 +18 +18 1012.6 1004.0 +30.0
15 16.01 ЮЗ 3 н/о н/о +16.7 +13.2 80 +16 +16 1012.7 1004.1
16 16.01 Ю 3 н/о н/о +15.8 +13.1 84 +15 +15 1012.3 1003.7
18 16.01 Ю 2 н/о н/о +13.7 +11.8 88 +13 +13 1012.0 1003.4
19 16.01 Ю 3 н/о н/о +14.4 +12.6 89 +13 +13 1011.9 1003.3

 

Местоположение метеостанции Гингин (Западная Австралия, Австралия): широта -31.47 долгота 115.87 высота над уровнем моря 75 м.

В архиве по умолчанию представлена погода в Гингине за последнюю неделю. Архивные данные за месяц целиком и за предыдущие месяцы, начиная с января 2011 года, Вы можете получить, выбрав интересующий диапазон дат из раскрывающегося списка и нажав кнопку "Ввод!".


*Определитесь, кто Вы:
робот инопланетянин человек

Внимание! Время в таблицах - всемирное. Для получения местного времени необходимо прибавить поправку, которая равна 8 ч.

Смотрите также архив погоды в соседних городах и на ближайших метеорологических станциях:

Погода в Буллсбрук Пирс (Западная Австралия, Австралия) (26 км)
Погода в Ошен Риф (Западная Австралия, Австралия) (35 км)
Погода в Перт Монт-Лоули (Западная Австралия, Австралия) (50 км)
Погода в Перте (Западная Австралия, Австралия) (52 км)
Погода в Суонборне (Западная Австралия, Австралия) (54 км)
Погода в Гусберри Хилл (Западная Австралия, Австралия) (56 км)
Погода в Обсерватории Перт (Западная Австралия, Австралия) (66 км)
Погода в Перт Джандакот (Западная Австралия, Австралия) (70 км)
Погода на Острове Роттнест (Западная Австралия, Австралия) (70 км)
Погода на Острове Гарден (Западная Австралия, Австралия) (86 км)

Пояснения к столбцам:

Ветер - указаны скорость ветра в м/с - средняя за 10 мин, порывы в срок и между сроками (в фигурных скобках) и направление, откуда дует ветер: С - северный, СВ - северо-восточный, В - восточный, ЮВ - юго-восточный, Ю - южный, ЮЗ - юго-западный, З - западный, СЗ - северо-западный.
Видимость - горизонтальная дальность видимости в метрах или километрах. При видимости от 1 до 10 км при отсутствии осадков обычно наблюдается дымка, при ухудшении видимости до 1 км и менее - туман. В сухую погоду видимость может ухудшаться дымом, пылью или мглою.
Явления - указаны атмосферные явления, наблюдавшиеся в срок или в последний час перед сроком; фигурными скобками обозначены явления, наблюдавшиеся между сроками (за 1-3 часа до срока); квадратными скобками обозначены град или гололедные отложения с указанием их диаметра в мм.
Облачность - указаны через наклонную черту общая и нижняя облачность в баллах и высота нижней границы облаков в метрах; квадратными скобками обозначены формы облаков: Ci - перистые, Cs - перисто-слоистые, Cc - перисто-кучевые, Ac - высококучевые, As - высокослоистые, Sc - слоисто-кучевые, Ns - слоисто-дождевые, Cu - кучевые, Cb - кучево-дождевые. Подробнее классификацию облаков см. в Атласе облаков (PDF).
T - Температура воздуха - температура, измеренная на высоте 2 м над землей.
Td - Температура точки росы - температура, при понижении до которой содержащийся в воздухе водяной пар достигнет насыщения.
f - Относительная влажность воздуха - влажноcть воздуха, измеренная на высоте 2 м над землей.
Te - Эффективная температура - температура, которую ощущает одетый по сезону человек в тени. Характеристика душности погоды. При расчете учитывается влияние влажности воздуха и скорости ветра на теплоощущения человека.
Tes - Эффективная температура на солнце - температура, которую ощущает человек, с поправкой на солнечный нагрев. Характеристика знойности погоды. Зависит от высоты солнца над горизонтом, облачности и скорости ветра. Ночью, в пасмурную погоду, а также при ветре 12 м/с и более поправка равна нулю.
P - Атмосферное давление - приведенное к уровню моря атмосферное давление.
Po - Атмосферное давление - измеренное на уровне метеостанции атмосферное давление.
Tmin - Минимальная температура - минимум температуры воздуха на высоте 2 м над землей.
Tmax - Максимальная температура - максимум температуры воздуха на высоте 2 м над землей.
R - Количество осадков - Количество выпавших осадков за период времени, мм. При наведении курсора мыши на число - период времени, за который выпало указанное количество осадков.
R24 - Количество осадков - Количество выпавших осадков за 24 часа, мм.
S - Снежный покров - Высота снежного покрова, см. При наведении курсора мыши на число - состояние снежного покрова и степень покрытия местности в баллах.